[[{"header":{"parameterUnit":"m.s-1","parameterCategory":1,"la1":30.2991,"la2":30.254,"lo1":-89.0895,"lo2":-89.0444,"dy":0.0017,"dx":0.0017,"nx":28,"ny":28,"refTime":"2025-04-30T09:00:00:Z","depth":0,"parameterNumber":2,"parameterNumberName":"U-component_of_WINDS"},"data":[0,0,0,0,0,0,0,0,0,0,0,0,0,0,0,0,0,0,0,0,0,0,0,0,0,0,0,0,0,0,0,0,0,0,0,0,0,0,0,0,0,0,0,0,0,0,0,0,0,0,0,0,0,0,0,0,0,0,0.2055,0.2055,0,0.2125,0.2126,0.2126,0.2148,0.2148,0.2147,0.2147,0.2219,0.2221,0.2224,0,0,0,0,0,0,0,0,0,0,0,0,0,0.1938,0.194,0.2055,0.2056,0.2056,0.2125,0.2126,0.2127,0.2148,0.2148,0.2147,0.2147,0.2218,0.2221,0.2224,0,0,0,0,0,0,0,0,0,0,0,0,0,0.1997,0.1941,0.2055,0.2075,0.2078,0.2125,0.2126,0.2127,0.2148,0.2148,0.2147,0.2147,0.2218,0.2221,0.2224,0.2255,0,0,0.2234,0.2236,0,0,0,0,0,0,0,0,0.1993,0.2001,0.2071,0.2074,0.2077,0.2127,0.2111,0.217,0.2148,0.2121,0.2147,0.2146,0.2189,0.2195,0.2209,0.2259,0.2262,0.2235,0.2237,0.2238,0.2239,0,0,0,0,0,0,0,0.1989,0.1998,0.2082,0.2072,0.2076,0.2081,0.2089,0.2122,0.2157,0.2124,0.2125,0.2133,0.219,0.2206,0.2211,0.2263,0.2235,0.2238,0.224,0.2241,0.234,0.2341,0,0,0,0,0,0,0.1982,0.1995,0.208,0.2085,0.2033,0.2083,0.2092,0.2112,0.2157,0.2163,0.2134,0.2134,0.22,0.2207,0.2213,0.2252,0.2238,0.2241,0.2243,0.2339,0.234,0.2341,0,0,0,0,0,0,0.1979,0.1989,0.2077,0.204,0.2052,0.2086,0.2108,0.2113,0.2128,0.2165,0.2171,0.2143,0.22,0.2209,0.2244,0.2255,0.2243,0.2246,0.2339,0.234,0.234,0.2329,0,0,0,0,0,0,0.1976,0.1988,0.2001,0.204,0.2054,0.2107,0.2108,0.2115,0.2134,0.2135,0.2175,0.2181,0.22,0.2239,0.2248,0.2259,0.2249,0.2338,0.2339,0.234,0.2329,0.233,0.2331,0,0,0,0,0,0.1972,0.1995,0.2001,0.2011,0.207,0.2108,0.2116,0.2137,0.2135,0.2147,0.217,0.218,0.2252,0.2243,0.2252,0.2265,0.2337,0.2339,0.234,0.2329,0.233,0.233,0,0,0,0,0,0,0.1957,0.2001,0.2008,0.2045,0.2072,0.2111,0.2128,0.2138,0.2166,0.2166,0.2192,0.2201,0.2234,0.2253,0.2242,0.2297,0.2295,0.2298,0.2283,0.2284,0.2285,0.228,0.2251,0,0,0,0,0,0.1958,0.1985,0.2022,0.2051,0.2064,0.2094,0.2111,0.2125,0.2155,0.2166,0.2192,0.222,0.2249,0.2268,0.2297,0.2332,0.234,0.2345,0.2346,0.2346,0.2349,0.2368,0.237,0.2345,0.2345,0.2345,0,0,0.196,0.1987,0.2003,0.2049,0.2072,0.2099,0.2103,0.2132,0.2153,0.2171,0.2206,0.2225,0.2258,0.2293,0.231,0.231,0.2357,0.2348,0.2348,0.2351,0.2369,0.2371,0.2373,0.2346,0.2346,0.2346,0,0,0.1978,0.2002,0.2028,0.2051,0.2085,0.2104,0.211,0.2147,0.2161,0.2196,0.221,0.2234,0.2284,0.2307,0.2325,0.2349,0.2359,0.2358,0.2362,0.238,0.2382,0.2384,0.2392,0.2394,0.2361,0.2361,0.2361,0,0.1977,0.2018,0.2041,0.2068,0.2087,0.2105,0.2131,0.2152,0.2194,0.2206,0.2206,0.2267,0.2291,0.2331,0.2337,0.2351,0.2358,0.2354,0.238,0.2382,0.2384,0.2392,0.2395,0.236,0.236,0.236,0.236,0,0.2014,0.2043,0.206,0.2099,0.212,0.2147,0.2173,0.2192,0.2203,0.2222,0.2257,0.2286,0.232,0.2331,0.2343,0.2372,0.2371,0.2375,0.2374,0.2386,0.2393,0.2397,0.236,0.236,0.236,0.236,0,0,0.2026,0.2076,0.2082,0.2099,0.2137,0.216,0.2187,0.222,0.2235,0.2263,0.2286,0.2327,0.233,0.235,0.2365,0.2381,0.2397,0.2383,0.2384,0.2384,0.243,0.2426,0.2429,0.2404,0.2404,0.2405,0.2427,0,0.2048,0.2097,0.2117,0.2157,0.2183,0.2199,0.2222,0.2248,0.2266,0.229,0.2311,0.2339,0.2342,0.2354,0.237,0.2392,0.2407,0.2391,0.2425,0.2426,0.2415,0.2434,0.243,0.245,0.243,0.243,0.2431,0,0.2081,0.2108,0.215,0.2184,0.2196,0.2216,0.2247,0.2271,0.23,0.2312,0.2334,0.2347,0.2376,0.2373,0.2412,0.24,0.2415,0.2428,0.2429,0.2433,0.2429,0.2437,0.2456,0.2459,0.2436,0.2436,0.2435,0,0.2084,0.2131,0.2162,0.2176,0.2217,0.2231,0.2249,0.2277,0.2295,0.2322,0.2334,0.2364,0.2381,0.2404,0.2425,0.2421,0.2461,0.246,0.2472,0.2471,0.248,0.2479,0.2501,0.249,0.249,0.249,0.249,0,0.2106,0.2131,0.2163,0.2182,0.221,0.2233,0.226,0.2278,0.2303,0.2326,0.2342,0.2362,0.2389,0.2413,0.243,0.2459,0.2467,0.2477,0.2481,0.2475,0.2474,0.2485,0.2484,0.2491,0.2491,0.249,0.249,0,0.2114,0.2137,0.2171,0.2206,0.2216,0.2235,0.2265,0.2283,0.2302,0.233,0.2338,0.2366,0.2395,0.2419,0.2457,0.2468,0.2498,0.2503,0.2488,0.249,0.25,0.2498,0.253,0.2535,0.2521,0.2521,0.2521,0,0.2126,0.2146,0.2183,0.2198,0.2216,0.2241,0.226,0.2282,0.23,0.2334,0.2348,0.2378,0.2403,0.2449,0.2473,0.2502,0.2507,0.2516,0.2512,0.2505,0.2507,0.2505,0.2507,0.2517,0.2517,0.2517,0.2517,0,0.2146,0.2156,0.2182,0.2211,0.2232,0.2256,0.2281,0.2293,0.232,0.2339,0.2369,0.2388,0.2426,0.2455,0.2486,0.2504,0.2515,0.2518,0.2522,0.2516,0.2506,0.2511,0.2489,0.2517,0.2517,0.2517,0.2517,0.2517,0.2156,0.2173,0.2202,0.2229,0.225,0.2272,0.2291,0.2311,0.2336,0.2369,0.238,0.241,0.2438,0.2481,0.2498,0.2522,0.2523,0.2529,0.253,0.2531,0.253,0.2503,0.2528,0.2528,0.2528,0.2528,0.2528,0,0.2176,0.2194,0.2219,0.2253,0.2274,0.2282,0.2309,0.2326,0.2352,0.2377,0.2401,0.2434,0.2462,0.2488,0.2517,0.2531,0.2537,0.2538,0.2537,0.2541,0.2528,0.2521,0.2533,0.2533,0.2533,0.2533,0.2533,0.2533,0.2188,0.2218,0.2231,0.227,0.2289,0.2318,0.2333,0.2353,0.2373,0.2409,0.2432,0.2448,0.2474,0.2504,0.253,0.2537,0.2547,0.2547,0.2555,0.2543,0.2542,0.2541,0.2535,0.2549,0.2549,0.2566,0.2566,0.2566]},{"header":{"parameterUnit":"m.s-1","parameterCategory":1,"la1":30.2991,"la2":30.254,"lo1":-89.0895,"lo2":-89.0444,"dy":0.0017,"dx":0.0017,"nx":28,"ny":28,"refTime":"2025-04-30T09:00:00:Z","depth":0,"parameterNumber":3,"parameterNumberName":"V-component_of_WINDS"},"data":[0,0,0,0,0,0,0,0,0,0,0,0,0,0,0,0,0,0,0,0,0,0,0,0,0,0,0,0,0,0,0,0,0,0,0,0,0,0,0,0,0,0,0,0,0,0,0,0,0,0,0,0,0,0,0,0,0,0,4.457,4.457,0,4.4629,4.463,4.4631,4.4554,4.4551,4.4548,4.4546,4.4603,4.4607,4.4611,0,0,0,0,0,0,0,0,0,0,0,0,0,4.4384,4.4388,4.457,4.457,4.4571,4.4629,4.463,4.4631,4.4554,4.4551,4.4548,4.4544,4.4602,4.4607,4.4612,0,0,0,0,0,0,0,0,0,0,0,0,0,4.4456,4.4389,4.4569,4.454,4.4538,4.4629,4.463,4.4631,4.4555,4.4551,4.4547,4.4543,4.46,4.4606,4.4612,4.4734,0,0,4.4631,4.4634,0,0,0,0,0,0,0,0,4.4452,4.4463,4.4544,4.4542,4.454,4.458,4.4586,4.4665,4.4556,4.4548,4.4546,4.4541,4.4599,4.4605,4.4625,4.4737,4.4739,4.4632,4.4636,4.4638,4.464,0,0,0,0,0,0,0,4.4447,4.446,4.4593,4.4545,4.4543,4.4522,4.4528,4.46,4.4596,4.4549,4.4543,4.4552,4.4597,4.4619,4.4626,4.474,4.4632,4.4637,4.4641,4.4643,4.4952,4.4956,0,0,0,0,0,0,4.4446,4.4456,4.4591,4.4595,4.4485,4.4529,4.4535,4.4571,4.4595,4.4595,4.4555,4.4548,4.4611,4.4619,4.4627,4.4769,4.4638,4.4644,4.4647,4.4947,4.4953,4.4957,0,0,0,0,0,0,4.4443,4.4459,4.4589,4.4524,4.4539,4.4536,4.4578,4.4575,4.4597,4.46,4.4598,4.4579,4.4608,4.4619,4.4708,4.477,4.4647,4.4652,4.4942,4.4949,4.4955,4.5056,0,0,0,0,0,0,4.4438,4.4458,4.4506,4.4526,4.4543,4.467,4.4582,4.4579,4.4608,4.4599,4.4622,4.4622,4.4605,4.4699,4.4714,4.4777,4.4657,4.4936,4.4945,4.4953,4.5047,4.5065,4.5081,0,0,0,0,0,4.4431,4.4532,4.4509,4.4525,4.4603,4.4674,4.4683,4.4663,4.4614,4.466,4.4662,4.4621,4.4761,4.4709,4.4725,4.479,4.4932,4.4942,4.4952,4.5039,4.5061,4.508,0,0,0,0,0,0,4.4518,4.4534,4.4509,4.4619,4.4646,4.4661,4.4719,4.4688,4.4728,4.4718,4.469,4.4696,4.4791,4.4799,4.4741,4.4908,4.4838,4.4852,4.4899,4.492,4.4937,4.4932,4.4662,0,0,0,0,0,4.4551,4.4609,4.4618,4.4715,4.4729,4.4722,4.4752,4.4735,4.4761,4.4771,4.478,4.4805,4.4855,4.4888,4.4934,4.5048,4.505,4.5101,4.5118,4.5132,4.5143,4.5202,4.5223,4.499,4.499,4.499,0,0,4.4617,4.4633,4.4671,4.4732,4.4751,4.481,4.4732,4.4798,4.4841,4.4781,4.4865,4.4872,4.4899,4.5,4.5045,4.501,4.5208,4.5144,4.5156,4.516,4.5214,4.5236,4.5256,4.4997,4.4996,4.4995,0,0,4.4769,4.4788,4.4868,4.4889,4.4918,4.4912,4.4932,4.4952,4.4954,4.5038,4.4994,4.5043,4.513,4.515,4.5172,4.5329,4.5292,4.5345,4.5433,4.549,4.5508,4.5524,4.5578,4.5598,4.5357,4.5357,4.5357,0,4.4847,4.4936,4.4914,4.4982,4.5009,4.4959,4.5039,4.5059,4.5102,4.5121,4.5082,4.5188,4.5203,4.5307,4.5345,4.5365,4.5384,4.5342,4.5508,4.5524,4.5538,4.5589,4.561,4.5363,4.5362,4.5362,4.5361,0,4.503,4.5091,4.5153,4.5196,4.523,4.5304,4.5292,4.5329,4.5307,4.5305,4.539,4.5406,4.5453,4.5477,4.5457,4.5578,4.5555,4.5512,4.5441,4.5567,4.5614,4.5634,4.5372,4.537,4.5368,4.5366,0,0,4.5238,4.5267,4.529,4.5307,4.5335,4.5382,4.5453,4.5499,4.553,4.5561,4.5618,4.5692,4.5652,4.5677,4.5659,4.5709,4.583,4.566,4.566,4.5689,4.5961,4.5991,4.6015,4.5806,4.5809,4.5812,4.5958,0,4.5387,4.5511,4.5493,4.5611,4.5666,4.5618,4.568,4.5702,4.5702,4.5747,4.5746,4.5798,4.5743,4.5757,4.5805,4.5805,4.5883,4.5794,4.5856,4.5859,4.585,4.604,4.6073,4.6209,4.5976,4.5979,4.5982,0,4.5579,4.5617,4.5741,4.5759,4.5781,4.5837,4.5877,4.5922,4.5945,4.5941,4.5968,4.594,4.6008,4.5938,4.603,4.597,4.5994,4.5998,4.6002,4.6006,4.5927,4.6047,4.6253,4.6273,4.6011,4.6009,4.6007,0,4.5715,4.5798,4.5882,4.5899,4.5922,4.5962,4.5973,4.5993,4.6021,4.6056,4.6074,4.6116,4.6139,4.6171,4.6154,4.6105,4.6249,4.6177,4.6246,4.6246,4.6277,4.6275,4.6488,4.6296,4.6296,4.6295,4.6295,0,4.5883,4.5961,4.5943,4.5995,4.6079,4.6056,4.614,4.6145,4.6163,4.6213,4.6174,4.6222,4.6198,4.6243,4.623,4.6308,4.6319,4.6316,4.6311,4.6318,4.6318,4.6333,4.6322,4.6301,4.63,4.6299,4.6298,0,4.605,4.6042,4.613,4.6144,4.615,4.6211,4.6222,4.627,4.6266,4.633,4.6343,4.6337,4.6388,4.6375,4.6431,4.6422,4.6519,4.6503,4.6511,4.6507,4.6575,4.6568,4.6803,4.6832,4.6623,4.6625,4.6627,0,4.6157,4.6216,4.6236,4.6267,4.6282,4.6333,4.6362,4.6341,4.6372,4.6402,4.6446,4.6493,4.6531,4.6614,4.6614,4.6655,4.6639,4.6719,4.6645,4.665,4.6638,4.6634,4.6639,4.6733,4.6735,4.6737,4.6739,0,4.6347,4.634,4.6384,4.6426,4.6462,4.6494,4.6522,4.6549,4.653,4.6567,4.6619,4.6648,4.6705,4.6752,4.679,4.6799,4.6765,4.6762,4.678,4.6787,4.6789,4.6787,4.6549,4.6757,4.6755,4.6753,4.6752,4.6752,4.6486,4.6535,4.6556,4.6606,4.6625,4.6652,4.6696,4.6698,4.6741,4.6786,4.6771,4.683,4.685,4.6897,4.6912,4.6956,4.6926,4.6952,4.6958,4.6965,4.6972,4.6783,4.6963,4.6963,4.6962,4.6962,4.6961,0,4.6673,4.6684,4.673,4.677,4.6809,4.6775,4.6803,4.6837,4.689,4.6912,4.6949,4.7008,4.7053,4.7056,4.7098,4.7133,4.7118,4.7144,4.714,4.7143,4.6998,4.6978,4.7155,4.7155,4.7155,4.7155,4.7155,4.7155,4.6774,4.6854,4.6849,4.6937,4.6947,4.7005,4.7024,4.7048,4.7065,4.7133,4.717,4.7172,4.7186,4.7228,4.7267,4.7266,4.7283,4.7315,4.7308,4.7173,4.7153,4.7135,4.7115,4.7319,4.7319,4.7448,4.745,4.7451]}]]